Location: Clanezzo
(45.7500°N, 9.6000°E)
Time: 12:39:42
(UTC+00:00)

Cosmos 1607 - Pass Details

Date: 12 May 2021
Orbit: 909 x 993 km, 65.0° (Epoch: 19 June)

Event Time Altitude Azimuth Distance (km) Brightness Sun altitude
Exits shadow 22:43:52 59° 158° (SSE) 1,130 3.9 -25.4°
Maximum altitude 22:44:41 65° 120° (ESE) 1,082 4.0 -25.4°
Drops below altitude 10° 22:51:06 10° 41° (NE) 2,764 6.9 -25.6°
Sets 22:53:43 0° 38° (NE) 3,716 7.7 -25.6°
